Theta_e
330 330 332 333 337 337 345 355 353 349 345 347 349 345 344 345 343 342 342 340 338 338 336 338 343 347 343 346 346 345 342 341
330 331 332 339 333 332 345 355 358 357 351 350 350 347 345 342 342 342 340 339 338 337 336 338 338 340 338 339 340 341 341 342
331 334 338 344 345 345 345 357 359 361 363 358 351 349 348 345 344 343 341 341 337 337 340 339 338 339 338 337 340 341 342 343
330 333 335 339 344 355 347 349 362 361 359 360 362 355 352 351 347 346 344 341 341 340 338 340 342 340 340 338 340 340 343 344
325 330 333 340 341 348 348 350 365 361 358 359 357 359 352 353 350 352 347 346 343 340 341 339 338 343 342 339 339 344 345 343
327 332 335 341 339 339 343 335 346 360 359 359 358 354 354 352 351 353 355 348 345 346 342 342 343 340 341 342 339 339 339 339
328 331 333 339 342 345 349 351 349 360 362 359 358 356 355 351 351 351 355 353 348 345 345 345 345 342 341 338 339 340 337 340
328 332 333 337 344 347 350 351 354 356 357 356 350 349 347 349 348 348 355 353 352 348 347 345 350 341 339 341 337 338 338 338
326 330 330 339 343 345 349 349 349 350 348 344 342 339 340 344 349 354 357 355 352 351 346 349 344 343 339 341 339 337 337 339
324 325 328 339 340 343 346 349 351 349 344 343 343 343 340 341 348 354 356 356 352 350 349 345 346 343 341 342 338 335 338 339
322 325 332 337 337 341 342 343 344 345 344 345 348 348 349 349 352 352 353 354 353 351 349 347 347 343 340 340 340 336 332 336
319 322 325 332 335 337 344 345 342 343 348 344 344 338 337 344 352 351 351 352 351 350 349 347 349 343 342 341 340 338 336 335
318 320 322 326 327 328 332 335 340 343 344 344 341 346 345 351 350 354 350 352 350 347 348 346 348 342 342 339 340 338 338 338
316 319 322 322 326 329 333 338 339 345 345 349 347 345 343 346 351 346 346 346 345 344 346 344 345 342 343 342 340 341 341 338
317 316 317 321 324 326 333 340 343 344 344 344 347 343 353 353 351 345 343 342 342 341 342 344 341 344 346 346 343 340 339 335
318 321 324 321 323 329 332 333 337 340 343 347 349 348 352 354 348 344 342 340 341 343 344 343 344 345 346 344 341 339 338 336
318 319 324 322 324 332 334 336 337 345 348 348 351 351 354 349 348 344 343 343 342 342 346 345 346 344 343 341 339 338 338 336
318 323 326 330 334 342 347 349 347 347 348 350 350 351 353 349 347 344 346 347 346 345 345 344 343 342 340 341 339 338 337 336
329 325 328 337 342 345 347 346 346 345 346 347 350 350 349 350 348 346 347 347 345 344 343 341 340 340 340 338 338 335 334 334
330 331 333 335 340 342 344 345 344 344 344 343 343 343 343 343 343 342 344 344 343 341 341 338 337 337 338 337 335 334 332 333
Wind_Speed
20 13 13 12 15 7 17 18 17 16 12 9 8 8 8 9 13 10 10 8 7 8 7 9 8 15 8 10 9 8 11 8
15 14 10 1 13 4 12 15 13 14 10 9 10 9 10 9 11 13 9 8 8 8 8 9 9 8 10 8 7 9 10 9
9 7 3 2 3 3 4 14 12 8 6 4 8 10 10 11 10 13 11 10 10 9 8 8 10 9 10 9 9 8 9 8
9 6 5 5 4 2 3 2 11 12 9 7 4 5 7 9 10 11 16 11 10 10 10 9 7 10 10 10 8 9 9 10
21 8 9 5 4 4 5 4 10 10 11 9 7 5 7 5 9 12 17 15 12 13 9 10 10 9 9 11 10 6 8 7
14 13 12 9 8 9 9 7 8 12 10 7 7 8 6 8 9 7 13 17 15 10 10 9 8 8 9 5 9 6 6 5
18 17 14 12 12 11 8 6 4 8 6 7 8 8 7 7 6 8 9 15 17 13 10 8 10 7 6 8 5 4 4 5
17 13 15 11 8 8 7 5 4 3 5 7 6 6 7 8 8 6 8 11 16 13 9 9 6 9 7 5 7 5 5 5
19 14 17 8 9 9 9 7 7 4 4 4 5 7 7 7 7 8 6 9 11 13 10 6 10 7 9 7 5 7 5 3
19 21 15 7 8 9 9 9 10 8 7 6 5 6 8 8 7 7 7 8 11 10 10 10 9 7 8 6 8 5 4 4
16 12 9 8 9 9 10 10 10 10 12 7 6 6 4 5 5 6 6 7 9 9 10 8 7 9 7 7 6 7 5 4
17 16 14 8 6 5 7 10 13 13 12 9 9 9 7 6 4 6 6 7 7 9 9 10 6 9 6 8 6 5 4 5
18 16 14 12 12 12 12 13 13 14 13 13 10 8 6 4 4 9 8 6 7 6 8 10 5 7 7 9 9 9 7 4
22 19 17 17 15 14 12 13 13 12 11 12 9 8 8 5 7 7 6 6 5 7 7 6 6 6 7 8 8 9 5 4
18 21 19 18 15 13 8 8 9 10 12 10 12 11 9 7 9 8 9 6 5 7 6 6 5 7 7 6 6 5 5 5
9 6 6 9 11 10 8 7 8 8 9 12 9 12 6 5 9 8 7 6 7 8 8 8 9 7 5 6 5 5 6 4
8 12 10 12 11 10 9 9 11 10 10 8 9 9 7 10 10 10 8 9 8 9 11 10 8 8 8 7 4 5 6 5
13 12 12 9 5 8 6 6 8 7 8 9 9 9 9 11 11 12 12 9 11 11 9 8 7 7 8 6 5 4 6 4
14 16 12 11 8 10 9 9 11 11 9 8 10 9 12 12 10 8 10 10 10 10 8 8 7 7 6 5 2 7 6 6
7 8 9 11 13 13 12 12 12 11 11 11 10 11 11 12 10 8 9 10 10 10 8 6 6 6 5 5 5 5 6 6
Wind_Direction
204 226 190 198 187 170 150 155 161 171 199 169 179 191 196 204 207 199 196 205 214 202 202 195 194 200 202 213 210 218 222 226
215 225 208 324 79 126 163 159 158 178 179 167 177 186 191 200 203 197 196 198 206 214 205 188 192 192 205 211 207 213 231 221
232 239 283 10 162 269 89 155 160 169 184 196 181 191 192 196 197 198 196 200 206 203 211 209 188 195 192 211 201 207 217 236
249 261 255 230 227 233 342 49 165 163 178 204 208 211 189 191 197 196 200 203 196 208 210 201 197 191 192 201 206 213 198 212
215 239 271 256 276 276 199 198 148 170 182 187 212 223 215 222 198 195 189 199 207 201 203 218 207 187 202 186 218 209 201 197
226 213 214 191 205 216 212 198 176 180 185 192 199 218 230 214 221 209 187 193 196 201 207 201 217 215 192 194 193 213 206 223
235 224 222 209 204 203 165 167 193 159 178 196 206 216 221 233 228 212 198 184 194 198 206 204 191 207 211 198 187 182 216 213
252 231 236 233 154 140 158 163 179 208 191 206 213 213 226 229 230 235 194 188 184 195 202 199 189 203 205 194 183 202 213 195
266 242 248 194 157 158 173 177 200 202 232 218 228 225 228 233 213 213 216 176 181 182 200 210 201 208 203 189 176 200 206 193
240 244 248 180 175 180 177 181 183 203 215 229 240 222 225 218 197 189 189 164 175 179 185 203 199 212 193 200 186 180 194 166
258 257 247 210 202 195 190 190 197 209 219 230 219 231 251 265 185 167 168 164 167 181 181 200 203 204 199 197 184 175 185 215
255 255 251 239 233 234 205 191 203 212 208 223 228 218 218 220 208 158 154 160 173 171 174 200 229 191 210 184 167 180 196 191
244 249 248 249 250 241 230 223 211 206 195 208 217 220 209 219 208 138 140 148 151 174 184 200 207 185 203 171 164 191 206 162
238 240 244 245 242 223 220 213 208 192 191 196 212 218 215 210 135 136 149 155 159 170 178 180 163 192 161 171 185 197 166 198
217 221 228 227 227 223 208 179 181 181 188 195 199 219 215 228 153 147 143 147 158 161 176 171 180 204 193 174 148 161 180 212
240 232 244 236 211 195 183 185 178 178 191 203 195 202 191 158 127 130 140 151 167 176 190 180 187 181 165 146 156 178 189 187
248 237 235 214 232 164 176 196 179 192 180 168 183 190 182 138 126 142 158 171 174 175 187 181 166 169 173 144 186 185 145 160
249 241 230 215 184 125 138 181 139 150 160 163 171 165 135 140 148 166 170 168 167 171 163 156 172 163 136 157 147 186 158 150
305 216 214 127 133 126 117 134 146 151 156 145 142 130 124 132 137 138 134 153 141 149 150 155 159 134 132 150 276 177 166 146
281 119 148 164 146 144 150 153 119 108 110 109 112 115 107 114 123 129 128 140 153 155 150 142 145 150 152 170 197 190 165 179